Hourly Data Report for July 27, 2012

HALIFAX STANFIELD INT'L A
NOVA SCOTIA

44°52'48.060" N
63°30'00.050" W
145.40 m
8202250
71395
YHZ

Download Data

Hourly Data (July 2012)
Hourly Data Report for July 27, 2012
TIME
LST
Temp Definition
°C
Dew Point Definition
°C
Rel Hum Definition
%
Precip. Amount Definition
mm

Wind Dir Definition
10's deg

Wind Spd Definition
km/h
Visibility Definition
km
Stn Press Definition
kPa
Hmdx Definition


Wind Chill Definition


Weather Definition


00:00 17.4 16.1 92   20 17 24.1 98.96     Cloudy
01:00 17.7 16.5 93   18 11 24.1 98.96     Cloudy
02:00 17.8 17.2 96   20 15 19.3 98.97     Rain Showers
03:00 17.5 17.5 100   21 22 6.4 98.99     Rain Showers, Fog
04:00 17.1 17.1 100   18 17 16.1 98.97     Cloudy
05:00 17.0 17.0 100   16 9 6.4 98.98     Rain Showers, Fog
06:00 16.7 16.7 100   14 13 2.4 98.94     Rain Showers, Fog
07:00 16.8 16.8 100   13 19 2.4 98.94     Rain Showers, Fog
08:00 17.1 17.1 100   12 19 2.4 98.92     Rain Showers, Fog
09:00 17.2 17.2 100   11 19 2.4 98.91     Rain Showers, Fog
10:00 17.6 17.6 100   12 20 2.4 98.89     Rain Showers, Fog
11:00 17.9 17.9 100   12 19 2.4 98.90     Rain Showers, Fog
12:00 18.0 18.0 100   4 6 3.2 98.95     Rain Showers, Fog
13:00 18.5 18.5 100   7 6 4.8 98.92     Rain Showers, Fog
14:00 18.9 18.7 99   1 7 24.1 98.97     Cloudy
15:00 19.0 19.0 100   1 9 24.1 99.00     Rain Showers
16:00 19.5 18.5 94   34 9 24.1 99.07     Cloudy
17:00 19.6 19.0 96   32 9 24.1 99.15     Mostly Cloudy
18:00 20.1 18.6 91   29 7 24.1 99.20 27   Mostly Cloudy
19:00 19.9 18.6 92   28 4 24.1 99.26     Mostly Cloudy
20:00 19.6 18.9 96   28 2 24.1 99.34     Mostly Cloudy
21:00 20.1 18.6 91   29 7 24.1 99.39 27   Mostly Cloudy
22:00 19.0 18.9 99   32 11 24.1 99.44     Mostly Cloudy
23:00 17.9 17.9 100   34 7 24.1 99.48     Mainly Clear

Notes on Data Quality.

Legend

  • E = Estimated
  • M = Missing
  • NA = Not Available*
  • [empty] = Indicates an unobserved value
Date modified: